Showing default

QUICK3, 64558

Orbit data source: Space-Track

QUICK3, 64558 is a Lithuanian payload satellite in SSO that was launched on Mon, 23 Jun 2025 UTC via an FALCON 9 launch vehicle from the Air Force Western Test Range (AFWTR). Payload-class satellites include a variety of spacecraft equipped with specific instruments for various scientific and technological missions. These include communications satellites like Starlink; space stations such as the ISS; scientific satellites like the Hubble; Earth observation satellites from companies like Planet Labs, Umbra, and HawkEye 360; GPS; miniature CubeSats for education and research; and military/defense satellites.

Loading next visibility...
Identifier
64558, 2025-135AG
Orbit
SSO
Country
Flag of LTLT / LTU
Related business
Manufacturer
NANAV/JENAU
Mission
Operational Amateur Technology
Bus & Motor
CUBESAT 3U, Unknown motor
Mass
5 kg wet, 5 kg dry
Launch date (UTC)
2025-06-23 (1 year ago)
Launch vehicle
FALCON 9
Launch site
Air Force Western Test Range (AFWTR)
Object type
Payload
Rocket body
Debris
Shape & HBR
Box + 1 Rod, 1.5 m
Radar Cross Section
0.035 m², Medium (>0.1 m² and < 1m²)

Expand to show TLE details & history
Last TLE update: 17 hours ago

TLE from 17 hours ago
0 QUICK3
1 64558U 25135AG  26235.56268244  .00010986  00000-0  39601-3 0  9995
2 64558  97.4789 352.2748 0003419 286.4204  73.6660 15.28715187 65147
Epoch: 2026-08-23T13:30Z
TLE epoch observation values (Epoch: 2026-08-23T13:30:15.762Z)
Latitude
-0.00001°
Longitude
177.85218°
Altitude
482.093 km
Speed
7.625 km/s
True Right ascension
23h 29m 05s
True Declination
0° 00' 00"
Sunlit
Object was in full shadow at epoch
Visualization orbit readout
Latitude
Unknown
Longitude
Unknown
Altitude
Unknown
Speed
Unknown
Apparent Right ascension
Unknown
Apparent Declination
Unknown
Sunlit
N/A
Visualization observer readout
Local Sidereal Time
21:44:27
Azimuth
Unknown
Elevation
Unknown
Doppler factor
Unknown
Orbital elements
Apogee altitude
478.953 km
Perigee altitude
474.266 km
Semi-major axis
6,854.746 km
Eccentricity
0.00034
Inclination
97.4789°
RAAN
352.2748°
Arg. of periapsis
286.4204°
True anomaly
73.7036°
Mean anomaly
73.666°
Eccentric anomaly
73.6848°
Mean motion
3.82434 °/min
Orbital period
94.13 mins
BSTAR
0.00039601
Loading maneuver chart data...
Computing Atmospheric mass density...
Loading historical data...
Loading historical data...
Loading historical data...
Loading historical data...
Loading historical data...
Loading historical data...
Loading historical data...

Documentation

Showing up to 5 results
|